User: anonymous   Login
Location: Unspecified
(0.0000°N, 0.0000°E)
Time: 07:24:37
(UTC+00:00)
Language:

NOSS 8 (A) - Orbit

View from above orbital plane
View from above orbital plane
View from above satellite
View from above satellite

Ground track
Ground track

The orbit data is extracted from the following two-line orbital elements,

1 17997U 87043A   17273.80938225 0.00002200  00000-0  26138-3 0    02
2 17997  63.3125 167.3815 0883500  48.3016 311.6984 13.47562211    06
Epoch (UTC): 30 September 2017 19:25:30
Eccentricity: 0.0883500
inclination: 63.3125°
perigee height: 422 km
apogee height: 1740 km
right ascension of ascending node: 167.3815°
argument of perigee: 48.3016°
revolutions per day: 13.47562211
mean anomaly at epoch: 311.6984°
orbit number at epoch: 0

The dashed part of the orbit path shows where the satellite is in the earth's shadow,  

DLR